Date String (YYYY-MM-DD hh:mm:ss) UTC,Instrument flags,Ambient pressure (hPa),Sample flow (lpm),Bypass flow (lpm),Sample temperature (°C),Ambient temperature (°C),ASC tube jacket temperature (°C),LED temperature (°C),Box temperature (°C),Sample RH (%),Span deviation,Mass concentration (μg/m³),Mass concentration (μg/m³),Mass concentration (μg/m³)
DateTimeUTC,F1_M11,P_M11,Q1_M11,Q2_M11,T1_M11,T2_M11,T3_M11,T4_M11,T5_M11,U1_M11,ZSPAN_M11,X0_M11,X2_M11,X1_M11
2022-01-14 10:00:00,,0821.0,5.00,0.00,25.4,24.6,00.0,34.5,27.1,08.5,0000.0,0001.85,0001.38,0001.22
2022-01-14 10:01:00,,0821.0,5.00,0.00,25.3,24.6,00.0,34.5,27.1,07.2,0000.0,0002.04,0001.68,0001.50
2022-01-14 10:02:00,,0820.9,4.99,0.00,25.3,24.6,00.0,34.5,27.1,07.0,0000.0,0002.28,0001.89,0001.71
2022-01-14 10:03:00,,0820.9,5.00,0.00,25.3,24.6,00.0,34.4,27.1,06.9,0000.0,0002.78,0002.08,0001.86
2022-01-14 10:04:00,,0821.0,5.00,0.00,25.3,24.6,00.0,34.4,27.1,06.5,0000.0,0002.90,0002.15,0001.93
2022-01-14 10:05:00,,0821.0,5.01,0.00,25.3,24.6,00.0,34.4,27.2,06.8,0000.0,0003.02,0002.27,0002.04
2022-01-14 10:06:00,,0821.0,4.99,0.00,25.3,24.6,00.0,34.4,27.1,06.8,0000.0,0003.17,0002.39,0002.15
2022-01-14 10:07:00,,0821.1,5.00,0.00,25.3,24.6,00.0,34.4,27.1,06.8,0000.0,0003.29,0002.38,0002.16
2022-01-14 10:08:00,,0821.1,5.02,0.00,25.3,24.6,00.0,34.4,27.1,07.7,0000.0,0003.35,0002.38,0002.16
2022-01-14 10:09:00,,0821.1,4.98,0.00,25.3,24.6,00.0,34.4,27.1,08.2,0000.0,0003.65,0002.67,0002.40
2022-01-14 10:10:00,,0821.0,5.01,0.00,25.3,24.6,00.0,34.4,27.1,07.8,0000.0,0003.97,0002.92,0002.62
2022-01-14 10:11:00,,0821.0,4.99,0.00,25.3,24.5,00.0,34.4,27.0,07.4,0000.0,0003.87,0002.83,0002.54
2022-01-14 10:12:00,,0821.0,5.00,0.00,25.3,24.5,00.0,34.4,27.1,07.8,0000.0,0003.87,0002.82,0002.54
2022-01-14 10:13:00,,0820.9,5.01,0.00,25.3,24.5,00.0,34.3,27.1,08.0,0000.0,0004.27,0002.98,0002.64
2022-01-14 10:14:00,,0821.0,5.00,0.00,25.3,24.5,00.0,34.3,27.1,07.9,0000.0,0004.52,0003.14,0002.78
2022-01-14 10:15:00,,0820.9,4.99,0.00,25.3,24.5,00.0,34.3,27.1,08.1,0000.0,0005.05,0003.24,0002.97
2022-01-14 10:16:00,,0820.8,5.01,0.00,25.3,24.6,00.0,34.3,27.1,08.4,0000.0,0005.41,0003.40,0003.19
2022-01-14 10:17:00,,0820.8,5.00,0.00,25.3,24.5,00.0,34.3,27.1,08.5,0000.0,0005.68,0003.54,0003.33
2022-01-14 10:18:00,,0820.8,5.00,0.00,25.2,24.5,00.0,34.3,27.0,08.3,0000.0,0005.91,0003.69,0003.47
2022-01-14 10:19:00,,0820.8,4.99,0.00,25.2,24.5,00.0,34.3,27.0,07.9,0000.0,0005.97,0003.81,0003.58
2022-01-14 10:20:00,,0820.8,5.01,0.00,25.2,24.5,00.0,34.3,27.0,08.1,0000.0,0005.85,0003.80,0003.59
2022-01-14 10:21:00,,0820.9,5.01,0.00,25.2,24.5,00.0,34.3,27.0,08.1,0000.0,0006.11,0003.77,0003.58
2022-01-14 10:22:00,,0820.9,5.01,0.00,25.2,24.5,00.0,34.3,27.0,08.1,0000.0,0006.44,0003.77,0003.58
2022-01-14 10:23:00,,0821.0,4.98,0.00,25.2,24.5,00.0,34.3,27.0,08.3,0000.0,0006.84,0003.84,0003.64
2022-01-14 10:24:00,,0821.0,5.00,0.00,25.2,24.5,00.0,34.3,27.0,08.4,0000.0,0006.88,0003.88,0003.69
2022-01-14 10:25:00,,0820.9,5.02,0.00,25.2,24.5,00.0,34.3,27.0,08.7,0000.0,0006.57,0003.89,0003.72
2022-01-14 10:26:00,,0820.9,5.00,0.00,25.2,24.5,00.0,34.2,27.0,08.3,0000.0,0006.17,0003.96,0003.77
2022-01-14 10:27:00,,0821.0,5.00,0.00,25.2,24.5,00.0,34.2,27.0,08.3,0000.0,0006.19,0003.97,0003.78
2022-01-14 10:28:00,,0820.8,4.99,0.00,25.2,24.5,00.0,34.2,27.0,08.7,0000.0,0006.34,0004.00,0003.79
2022-01-14 10:29:00,,0820.8,5.00,0.00,25.2,24.5,00.0,34.2,27.0,08.9,0000.0,0006.65,0004.08,0003.85
2022-01-14 10:30:00,,0820.8,5.01,0.00,25.2,24.5,00.0,34.2,27.0,08.9,0000.0,0006.81,0004.16,0003.93
2022-01-14 10:31:00,,0820.8,5.00,0.00,25.2,24.5,00.0,34.2,27.0,09.0,0000.0,0006.98,0004.27,0004.03
2022-01-14 10:32:00,,0820.7,5.00,0.00,25.2,24.5,00.0,34.2,27.0,08.7,0000.0,0006.70,0004.30,0004.08
2022-01-14 10:33:00,,0820.8,4.99,0.00,25.2,24.5,00.0,34.2,27.1,08.0,0000.0,0006.21,0004.26,0004.04
2022-01-14 10:34:00,,0820.9,5.00,0.00,25.2,24.5,00.0,34.2,27.1,08.2,0000.0,0005.76,0004.17,0003.96
2022-01-14 10:35:00,,0820.9,5.00,0.00,25.2,24.5,00.0,34.2,27.1,08.1,0000.0,0005.84,0004.02,0003.83
2022-01-14 10:36:00,,0820.8,5.00,0.00,25.2,24.5,00.0,34.2,27.1,07.8,0000.0,0006.75,0003.88,0003.70
2022-01-14 10:37:00,,0820.9,5.01,0.00,25.2,24.5,00.0,34.2,27.1,07.9,0000.0,0006.40,0003.72,0003.57
2022-01-14 10:38:00,,0820.9,4.99,0.00,25.2,24.5,00.0,34.2,27.1,08.2,0000.0,0006.12,0003.61,0003.47
2022-01-14 10:39:00,,0820.8,4.99,0.00,25.2,24.5,00.0,34.2,27.1,08.4,0000.0,0005.83,0003.49,0003.37
2022-01-14 10:40:00,,0820.8,5.00,0.00,25.2,24.5,00.0,34.2,27.1,08.5,0000.0,0005.40,0003.31,0003.22
2022-01-14 10:41:00,,0820.8,5.01,0.00,25.2,24.6,00.0,34.2,27.1,08.5,0000.0,0005.38,0003.14,0003.01
2022-01-14 10:42:00,,0820.8,4.99,0.00,25.3,24.6,00.0,34.2,27.1,08.2,0000.0,0005.31,0002.85,0002.69
2022-01-14 10:43:00,,0820.9,5.00,0.00,25.3,24.6,00.0,34.2,27.1,08.0,0000.0,0005.53,0002.59,0002.44
2022-01-14 10:44:00,,0820.9,5.00,0.00,25.3,24.6,00.0,34.2,27.1,08.0,0000.0,0005.40,0002.49,0002.34
2022-01-14 10:45:00,,0821.0,5.01,0.00,25.3,24.6,00.0,34.2,27.1,08.0,0000.0,0005.35,0002.42,0002.26
2022-01-14 10:46:00,,0821.0,4.99,0.00,25.3,24.6,00.0,34.2,27.1,08.3,0000.0,0004.96,0002.43,0002.24
2022-01-14 10:47:00,,0821.0,5.01,0.00,25.3,24.5,00.0,34.2,27.1,08.8,0000.0,0003.95,0002.62,0002.44
2022-01-14 10:48:00,,0821.0,5.00,0.00,25.2,24.5,00.0,34.2,27.0,09.1,0000.0,0004.37,0002.93,0002.74
2022-01-14 10:49:00,,0821.0,4.99,0.00,25.2,24.5,00.0,34.2,27.1,09.2,0000.0,0006.25,0003.23,0003.07
2022-01-14 10:50:00,,0821.0,5.02,0.00,25.2,24.5,00.0,34.2,27.1,09.2,0000.0,0006.65,0003.42,0003.28
2022-01-14 10:51:00,,0821.1,4.99,0.00,25.2,24.5,00.0,34.2,27.0,08.8,0000.0,0006.89,0003.60,0003.45
2022-01-14 10:52:00,,0821.1,5.00,0.00,25.2,24.4,00.0,34.2,27.0,08.8,0000.0,0007.17,0003.81,0003.64
2022-01-14 10:53:00,,0821.2,5.00,0.00,25.2,24.4,00.0,34.2,26.9,08.9,0000.0,0007.47,0004.04,0003.86
2022-01-14 10:54:00,,0821.3,4.99,0.00,25.1,24.4,00.0,34.2,26.9,09.0,0000.0,0007.65,0004.31,0004.11
2022-01-14 10:55:00,,0821.3,5.01,0.00,25.1,24.4,00.0,34.2,26.9,09.2,0000.0,0007.89,0004.57,0004.38
2022-01-14 10:56:00,,0821.2,5.00,0.00,25.1,24.4,00.0,34.2,26.9,09.3,0000.0,0008.14,0004.83,0004.64
2022-01-14 10:57:00,,0821.1,5.00,0.00,25.1,24.4,00.0,34.2,26.9,09.3,0000.0,0008.33,0005.06,0004.87
2022-01-14 10:58:00,,0821.2,5.01,0.00,25.1,24.4,00.0,34.2,26.9,09.3,0000.0,0008.60,0005.22,0005.03
2022-01-14 10:59:00,,0821.1,5.01,0.00,25.1,24.4,00.0,34.2,26.9,09.2,0000.0,0008.76,0005.30,0005.11
